NSZ31U ESSA-ESNU

Flight info

Callsign NSZ31U
Flight time 0h 47m
Altitude 33000
Route RESNA DCT RIKPA DCT LENSO
Aircraft B738/M-SDE2E3FGHIRWXY/LB1

Departure

Time 2026-04-15 09:19
Airport Stockholm-Arlanda Airport (ESSA)

Arrival

Time 2026-04-15 10:06
Airport Umeå Airport (ESNU)
Time Latitude Longitude Altitude Speed Heading
2026-04-15 09:01 59.65388 17.93039 57 ft 0 kts 191°
2026-04-15 09:13 59.65398 17.93043 109 ft 3 kts 197°
2026-04-15 09:13 59.65416 17.93058 110 ft 3 kts 219°
2026-04-15 09:13 59.65429 17.93086 108 ft 3 kts 246°
2026-04-15 09:13 59.65432 17.93101 109 ft 0 kts 255°
2026-04-15 09:16 59.65431 17.93096 109 ft 2 kts 255°
2026-04-15 09:16 59.65422 17.93020 110 ft 7 kts 258°
2026-04-15 09:16 59.65456 17.92946 111 ft 9 kts 343°
2026-04-15 09:17 59.65531 17.92904 108 ft 12 kts 355°
2026-04-15 09:17 59.65581 17.93011 107 ft 12 kts 74°
2026-04-15 09:17 59.65600 17.93164 108 ft 11 kts 76°
2026-04-15 09:17 59.65632 17.93306 108 ft 13 kts 45°
2026-04-15 09:18 59.65704 17.93450 109 ft 15 kts 46°
2026-04-15 09:18 59.65775 17.93597 113 ft 15 kts 46°
2026-04-15 09:18 59.65844 17.93739 116 ft 14 kts 46°
2026-04-15 09:18 59.65912 17.94159 118 ft 66 kts 76°
2026-04-15 09:19 59.66082 17.95510 122 ft 136 kts 77°
2026-04-15 09:19 59.66317 17.97496 669 ft 151 kts 78°
2026-04-15 09:19 59.66584 17.99479 1623 ft 152 kts 81°
2026-04-15 09:19 59.66859 18.01547 2275 ft 168 kts 83°
2026-04-15 09:20 59.66690 18.03905 2671 ft 183 kts 123°
2026-04-15 09:20 59.65670 18.05401 3208 ft 191 kts 162°
2026-04-15 09:20 59.64346 18.05233 3729 ft 206 kts 198°
2026-04-15 09:20 59.63284 18.03299 4358 ft 220 kts 240°
2026-04-15 09:21 59.63006 18.00279 5037 ft 227 kts 263°
2026-04-15 09:21 59.62996 17.97118 5614 ft 235 kts 278°
2026-04-15 09:21 59.63775 17.94328 6220 ft 237 kts 314°
2026-04-15 09:21 59.64966 17.92050 6825 ft 240 kts 323°
2026-04-15 09:22 59.66512 17.90742 7146 ft 251 kts 357°
2026-04-15 09:22 59.68282 17.91078 7367 ft 265 kts 16°
2026-04-15 09:22 59.70149 17.91986 7738 ft 282 kts 18°
2026-04-15 09:22 59.72046 17.92996 8480 ft 288 kts 19°
2026-04-15 09:23 59.73985 17.94039 9309 ft 290 kts 19°
2026-04-15 09:23 59.75944 17.95089 10128 ft 294 kts 19°
2026-04-15 09:23 59.77951 17.96159 10773 ft 305 kts 19°
2026-04-15 09:23 59.80091 17.97300 10960 ft 330 kts 18°
2026-04-15 09:24 59.82391 17.98524 11134 ft 352 kts 18°
2026-04-15 09:24 59.84791 17.99786 11513 ft 366 kts 17°
2026-04-15 09:24 59.87280 18.01084 12178 ft 371 kts 17°
2026-04-15 09:24 59.89783 18.02387 12964 ft 373 kts 17°
2026-04-15 09:25 59.92311 18.03703 13736 ft 376 kts 18°
2026-04-15 09:25 59.94856 18.05031 14467 ft 380 kts 18°
2026-04-15 09:25 59.97436 18.06381 15167 ft 384 kts 17°
2026-04-15 09:25 60.00026 18.07738 15904 ft 387 kts 17°
2026-04-15 09:26 60.02610 18.09094 16617 ft 390 kts 17°
2026-04-15 09:26 60.05253 18.10484 17338 ft 394 kts 17°
2026-04-15 09:26 60.07922 18.11890 18044 ft 398 kts 17°
2026-04-15 09:26 60.10614 18.13311 18694 ft 402 kts 17°
2026-04-15 09:27 60.13344 18.14756 19251 ft 407 kts 17°
2026-04-15 09:27 60.16086 18.16208 19907 ft 408 kts 16°
2026-04-15 09:27 60.18805 18.17649 20544 ft 409 kts 16°
2026-04-15 09:27 60.21571 18.19119 21179 ft 411 kts 15°
2026-04-15 09:28 60.24352 18.20599 21765 ft 414 kts 17°
2026-04-15 09:28 60.27147 18.22089 22369 ft 415 kts 15°
2026-04-15 09:28 60.29948 18.23585 22973 ft 417 kts 15°
2026-04-15 09:28 60.32761 18.25092 23626 ft 417 kts 15°
2026-04-15 09:29 60.35545 18.26585 24111 ft 421 kts 15°
2026-04-15 09:29 60.38395 18.28115 24507 ft 424 kts 15°
2026-04-15 09:29 60.41251 18.29653 25020 ft 424 kts 15°
2026-04-15 09:29 60.44112 18.31195 25399 ft 428 kts 15°
2026-04-15 09:30 60.47000 18.32755 25762 ft 431 kts 15°
2026-04-15 09:30 60.49983 18.34370 26173 ft 434 kts 15°
2026-04-15 09:30 60.52836 18.35917 26451 ft 438 kts 15°
2026-04-15 09:30 60.55781 18.37517 26974 ft 437 kts 15°
2026-04-15 09:31 60.58727 18.39120 27366 ft 439 kts 15°
2026-04-15 09:31 60.61694 18.40738 27674 ft 443 kts 15°
2026-04-15 09:31 60.64682 18.42371 27993 ft 446 kts 15°
2026-04-15 09:31 60.67658 18.43999 28289 ft 450 kts 14°
2026-04-15 09:32 60.70693 18.45663 28635 ft 451 kts 14°
2026-04-15 09:32 60.73731 18.47332 28989 ft 453 kts 14°
2026-04-15 09:32 60.76789 18.49016 29300 ft 455 kts 14°
2026-04-15 09:32 60.79838 18.50699 29909 ft 451 kts 14°
2026-04-15 09:33 60.82861 18.52371 30400 ft 450 kts 14°
2026-04-15 09:33 60.85891 18.54049 30721 ft 451 kts 14°
2026-04-15 09:33 60.87904 18.55166 30947 ft 451 kts 14°
2026-04-15 09:33 60.91822 18.57343 31381 ft 451 kts 14°
2026-04-15 09:34 60.94805 18.59005 31800 ft 449 kts 14°
2026-04-15 09:34 60.97823 18.60691 32105 ft 450 kts 14°
2026-04-15 09:34 61.00845 18.62381 32382 ft 452 kts 14°
2026-04-15 09:34 61.03882 18.64083 32733 ft 451 kts 14°
2026-04-15 09:35 61.06907 18.65782 33124 ft 450 kts 14°
2026-04-15 09:35 61.09930 18.67483 33428 ft 450 kts 14°
2026-04-15 09:35 61.16032 18.70925 33413 ft 455 kts 14°
2026-04-15 09:36 61.22065 18.74345 33411 ft 449 kts 14°
2026-04-15 09:36 61.28094 18.77775 33420 ft 448 kts 14°
2026-04-15 09:37 61.34099 18.81205 33416 ft 446 kts 14°
2026-04-15 09:37 61.40088 18.84638 33423 ft 446 kts 14°
2026-04-15 09:38 61.46042 18.88065 33426 ft 446 kts 14°
2026-04-15 09:38 61.52048 18.91536 33439 ft 447 kts 14°
2026-04-15 09:39 61.58060 18.95025 33429 ft 448 kts 14°
2026-04-15 09:39 61.64088 18.98537 33431 ft 449 kts 14°
2026-04-15 09:40 61.69963 19.01974 33432 ft 450 kts 14°
2026-04-15 09:40 61.76002 19.05520 33431 ft 450 kts 14°
2026-04-15 09:41 61.81026 19.08482 33447 ft 451 kts 14°
2026-04-15 09:41 61.84053 19.10271 33326 ft 453 kts 14°
2026-04-15 09:41 61.87084 19.12067 33037 ft 451 kts 14°
2026-04-15 09:42 61.90095 19.13854 32775 ft 449 kts 14°
2026-04-15 09:42 61.93106 19.15645 32522 ft 449 kts 14°
2026-04-15 09:42 61.96119 19.17440 32269 ft 450 kts 14°
2026-04-15 09:42 61.99134 19.19241 32016 ft 450 kts 14°
2026-04-15 09:43 62.02106 19.21019 31773 ft 451 kts 14°
2026-04-15 09:43 62.05125 19.22829 31526 ft 451 kts 14°
2026-04-15 09:43 62.08147 19.24646 31278 ft 450 kts 14°
2026-04-15 09:43 62.11163 19.26462 31052 ft 450 kts 14°
2026-04-15 09:44 62.14178 19.28281 30808 ft 449 kts 14°
2026-04-15 09:44 62.17185 19.30099 30567 ft 448 kts 14°
2026-04-15 09:44 62.20181 19.31915 30234 ft 446 kts 14°
2026-04-15 09:44 62.23165 19.33726 29540 ft 442 kts 15°
2026-04-15 09:45 62.26101 19.35513 28909 ft 436 kts 15°
2026-04-15 09:45 62.28997 19.37279 28372 ft 430 kts 15°
2026-04-15 09:45 62.31858 19.39026 27819 ft 424 kts 15°
2026-04-15 09:45 62.34676 19.40751 27254 ft 420 kts 15°
2026-04-15 09:46 62.37473 19.42465 26713 ft 415 kts 15°
2026-04-15 09:46 62.40237 19.44163 26172 ft 411 kts 16°
2026-04-15 09:46 62.42983 19.45852 25635 ft 407 kts 16°
2026-04-15 09:46 62.45663 19.47505 25115 ft 404 kts 16°
2026-04-15 09:47 62.48361 19.49171 24588 ft 401 kts 17°
2026-04-15 09:47 62.51036 19.50827 24074 ft 399 kts 17°
2026-04-15 09:47 62.53699 19.52479 23459 ft 396 kts 17°
2026-04-15 09:47 62.56343 19.54122 22889 ft 393 kts 17°
2026-04-15 09:48 62.58947 19.55773 22281 ft 389 kts 19°
2026-04-15 09:48 62.61487 19.57931 21530 ft 391 kts 24°
2026-04-15 09:48 62.63961 19.60351 20963 ft 388 kts 26°
2026-04-15 09:48 62.66403 19.62822 20417 ft 386 kts 26°
2026-04-15 09:49 62.68824 19.65277 19893 ft 383 kts 25°
2026-04-15 09:49 62.71234 19.67701 19379 ft 380 kts 25°
2026-04-15 09:49 62.73632 19.70090 18873 ft 377 kts 25°
2026-04-15 09:49 62.75985 19.72420 18321 ft 375 kts 25°
2026-04-15 09:50 62.78351 19.74754 17768 ft 372 kts 25°
2026-04-15 09:50 62.80703 19.77072 17266 ft 368 kts 25°
2026-04-15 09:50 62.83035 19.79369 16756 ft 365 kts 25°
2026-04-15 09:50 62.85344 19.81646 16261 ft 362 kts 25°
2026-04-15 09:51 62.87637 19.83911 15778 ft 360 kts 25°
2026-04-15 09:51 62.89912 19.86161 15297 ft 357 kts 25°
2026-04-15 09:51 62.92171 19.88399 14817 ft 355 kts 25°
2026-04-15 09:51 62.94416 19.90628 14343 ft 353 kts 25°
2026-04-15 09:52 62.96650 19.92849 13810 ft 351 kts 25°
2026-04-15 09:52 62.98872 19.95062 13298 ft 349 kts 25°
2026-04-15 09:52 63.01034 19.97220 12816 ft 347 kts 25°
2026-04-15 09:52 63.03227 19.99411 12333 ft 344 kts 25°
2026-04-15 09:53 63.05334 20.01520 11877 ft 342 kts 25°
2026-04-15 09:53 63.07500 20.03691 11412 ft 340 kts 25°
2026-04-15 09:53 63.09628 20.05828 11210 ft 330 kts 25°
2026-04-15 09:53 63.11687 20.07898 11048 ft 320 kts 25°
2026-04-15 09:54 63.13685 20.09909 10906 ft 310 kts 25°
2026-04-15 09:54 63.15620 20.11861 10771 ft 301 kts 25°
2026-04-15 09:54 63.17494 20.13754 10644 ft 292 kts 25°
2026-04-15 09:54 63.19288 20.15569 10522 ft 283 kts 26°
2026-04-15 09:55 63.21062 20.17366 10368 ft 277 kts 26°
2026-04-15 09:55 63.22812 20.19143 10065 ft 276 kts 26°
2026-04-15 09:55 63.24553 20.20912 9782 ft 274 kts 26°
2026-04-15 09:55 63.26279 20.22669 9493 ft 272 kts 26°
2026-04-15 09:56 63.27997 20.24418 9208 ft 271 kts 26°
2026-04-15 09:56 63.29704 20.26160 8926 ft 269 kts 26°
2026-04-15 09:56 63.33097 20.29628 8347 ft 267 kts 26°
2026-04-15 09:57 63.34780 20.31352 8073 ft 266 kts 26°
2026-04-15 09:57 63.36454 20.33068 7794 ft 265 kts 26°
2026-04-15 09:57 63.38103 20.34760 7529 ft 263 kts 26°
2026-04-15 09:57 63.39762 20.36466 7255 ft 262 kts 26°
2026-04-15 09:58 63.41419 20.38172 6983 ft 261 kts 26°
2026-04-15 09:58 63.43068 20.39871 6699 ft 261 kts 26°
2026-04-15 09:58 63.44716 20.41571 6485 ft 258 kts 26°
2026-04-15 09:58 63.46337 20.43245 6437 ft 255 kts 26°
2026-04-15 09:59 63.47920 20.44881 6423 ft 245 kts 26°
2026-04-15 09:59 63.49428 20.46441 6411 ft 233 kts 26°
2026-04-15 09:59 63.50856 20.47923 6408 ft 221 kts 27°
2026-04-15 09:59 63.52198 20.49551 6411 ft 218 kts 31°
2026-04-15 10:00 63.53520 20.51267 6330 ft 219 kts 32°
2026-04-15 10:00 63.54788 20.52910 6243 ft 207 kts 32°
2026-04-15 10:00 63.56024 20.54520 5947 ft 205 kts 32°
2026-04-15 10:00 63.57258 20.56116 5604 ft 204 kts 31°
2026-04-15 10:01 63.58486 20.57702 5289 ft 203 kts 31°
2026-04-15 10:01 63.59802 20.58774 4925 ft 204 kts 359°
2026-04-15 10:01 63.61184 20.58155 4614 ft 202 kts 347°
2026-04-15 10:01 63.62555 20.57493 4284 ft 201 kts 349°
2026-04-15 10:02 63.63925 20.56861 3973 ft 200 kts 349°
2026-04-15 10:02 63.65245 20.55933 3628 ft 201 kts 329°
2026-04-15 10:02 63.66345 20.53968 3271 ft 202 kts 320°
2026-04-15 10:02 63.67407 20.51925 2973 ft 200 kts 320°
2026-04-15 10:03 63.68443 20.49870 2692 ft 197 kts 320°
2026-04-15 10:03 63.69451 20.47842 2426 ft 189 kts 320°
2026-04-15 10:03 63.70403 20.45924 2160 ft 178 kts 320°
2026-04-15 10:03 63.71296 20.44126 1920 ft 173 kts 320°
2026-04-15 10:04 63.72197 20.42318 1687 ft 173 kts 320°
2026-04-15 10:04 63.73090 20.40520 1445 ft 172 kts 320°
2026-04-15 10:04 63.73949 20.38795 1236 ft 157 kts 319°
2026-04-15 10:04 63.74723 20.37234 1039 ft 144 kts 320°
2026-04-15 10:05 63.75464 20.35744 828 ft 143 kts 319°
2026-04-15 10:05 63.76204 20.34256 632 ft 140 kts 319°
2026-04-15 10:05 63.76934 20.32783 431 ft 141 kts 319°
2026-04-15 10:05 63.77662 20.31320 236 ft 142 kts 318°
2026-04-15 10:06 63.78394 20.29849 48 ft 140 kts 318°
2026-04-15 10:06 63.79041 20.28559 27 ft 97 kts 319°
2026-04-15 10:06 63.79384 20.27885 31 ft 33 kts 320°
2026-04-15 10:06 63.79526 20.27625 30 ft 15 kts 324°
2026-04-15 10:07 63.79547 20.27557 30 ft 3 kts 246°
2026-04-15 10:07 63.79531 20.27553 30 ft 3 kts 156°
2026-04-15 10:07 63.79511 20.27608 30 ft 8 kts 127°
2026-04-15 10:07 63.79464 20.27732 30 ft 12 kts 137°
2026-04-15 10:08 63.79390 20.27877 30 ft 16 kts 139°
2026-04-15 10:08 63.79288 20.28078 29 ft 22 kts 139°
2026-04-15 10:08 63.79172 20.28310 27 ft 17 kts 134°
2026-04-15 10:08 63.79194 20.28497 27 ft 13 kts 47°
2026-04-15 10:09 63.79250 20.28639 28 ft 10 kts 45°
2026-04-15 10:09 63.79300 20.28657 27 ft 5 kts 345°
2026-04-15 10:09 63.79325 20.28696 28 ft 5 kts 47°
2026-04-15 10:09 63.79337 20.28726 28 ft 0 kts 48°